TimeEDT,TemperatureF,Dew PointF,Humidity,Sea Level PressureIn,VisibilityMPH,Wind Direction,Wind SpeedMPH,Gust SpeedMPH,PrecipitationIn,Events,Conditions,WindDirDegrees,DateUTC
12:17 AM,75.2,71.6,89,30.03,9.0,SE,10.4,-,0.10,Rain-Thunderstorm,Rain,140,2012-09-21 04:17:00
12:40 AM,75.2,73.4,94,30.04,9.0,SE,13.8,-,0.15,Rain,Rain,130,2012-09-21 04:40:00
12:53 AM,75.9,73.0,91,30.03,6.0,ESE,18.4,-,0.21,Rain,Heavy Rain,110,2012-09-21 04:53:00
1:53 AM,75.0,68.0,79,29.99,9.0,East,6.9,-,0.17,Rain,Rain,100,2012-09-21 05:53:00
2:53 AM,73.0,69.1,87,29.95,10.0,NE,5.8,-,0.12,Rain,Light Rain,40,2012-09-21 06:53:00
3:53 AM,75.9,72.0,87,29.94,10.0,ENE,5.8,-,0.00,,Scattered Clouds,60,2012-09-21 07:53:00
4:53 AM,78.1,73.9,87,29.93,10.0,NNE,6.9,-,N/A,,Clear,30,2012-09-21 08:53:00
5:53 AM,79.0,73.9,84,29.94,10.0,NE,4.6,-,N/A,,Partly Cloudy,40,2012-09-21 09:53:00
6:53 AM,80.1,73.9,81,29.96,10.0,ENE,5.8,-,N/A,,Partly Cloudy,70,2012-09-21 10:53:00
7:53 AM,80.1,73.9,81,29.96,10.0,NE,5.8,-,N/A,,Mostly Cloudy,50,2012-09-21 11:53:00
8:53 AM,81.0,73.9,79,29.97,10.0,ENE,9.2,18.4,N/A,,Overcast,70,2012-09-21 12:53:00
9:53 AM,82.9,73.9,74,29.96,10.0,ENE,10.4,-,N/A,,Partly Cloudy,70,2012-09-21 13:53:00
10:53 AM,82.9,73.0,72,29.98,10.0,East,13.8,20.7,N/A,,Scattered Clouds,80,2012-09-21 14:53:00
11:26 AM,84.2,75.2,74,29.97,10.0,East,19.6,25.3,N/A,,Mostly Cloudy,100,2012-09-21 15:26:00
11:33 AM,84.2,75.2,74,29.97,10.0,East,19.6,24.2,N/A,,Scattered Clouds,100,2012-09-21 15:33:00
11:53 AM,82.9,73.9,74,29.98,10.0,East,15.0,24.2,N/A,,Partly Cloudy,90,2012-09-21 15:53:00
12:53 PM,82.0,73.0,74,29.97,10.0,ESE,16.1,-,N/A,,Mostly Cloudy,110,2012-09-21 16:53:00
1:53 PM,82.0,73.9,76,29.94,10.0,ESE,15.0,-,N/A,,Mostly Cloudy,110,2012-09-21 17:53:00
2:02 PM,82.4,73.4,74,29.94,10.0,ESE,12.7,-,N/A,,Scattered Clouds,110,2012-09-21 18:02:00
2:37 PM,82.4,73.4,74,29.93,10.0,ESE,12.7,-,N/A,,Mostly Cloudy,110,2012-09-21 18:37:00
2:53 PM,82.9,73.9,74,29.91,10.0,East,12.7,-,N/A,,Mostly Cloudy,100,2012-09-21 18:53:00
3:10 PM,82.4,73.4,74,29.90,10.0,East,11.5,-,N/A,,Scattered Clouds,100,2012-09-21 19:10:00
3:53 PM,82.9,73.9,74,29.90,10.0,East,10.4,-,N/A,,Partly Cloudy,100,2012-09-21 19:53:00
4:53 PM,82.9,73.0,72,29.92,10.0,East,9.2,-,N/A,,Partly Cloudy,90,2012-09-21 20:53:00
5:53 PM,82.0,73.9,76,29.91,10.0,ESE,10.4,-,N/A,,Partly Cloudy,110,2012-09-21 21:53:00
6:53 PM,82.0,73.9,76,29.92,10.0,ESE,12.7,-,N/A,,Scattered Clouds,110,2012-09-21 22:53:00
7:53 PM,82.0,72.0,71,29.92,10.0,East,10.4,-,0.00,Rain,Light Rain,100,2012-09-21 23:53:00
8:53 PM,81.0,73.0,77,29.94,10.0,East,6.9,-,0.00,,Partly Cloudy,80,2012-09-22 00:53:00
9:53 PM,81.0,73.0,77,29.96,10.0,East,6.9,-,N/A,,Partly Cloudy,80,2012-09-22 01:53:00
10:53 PM,81.0,73.0,77,29.96,10.0,ENE,6.9,-,N/A,,Scattered Clouds,60,2012-09-22 02:53:00
11:53 PM,79.0,70.0,74,29.96,10.0,NE,3.5,-,N/A,,Partly Cloudy,40,2012-09-22 03:53:00